Overview Statistics Trail Chart Weather Telemetry Raw packets
 

This is the latest recevied weather packets stored in our database for station/object WX0ABE-13. If no packets are shown the sender has not sent any weather packets the latest 10 day(s).

<< 44 45 46 47 48 49 50 >>
Time Temp. Humidity Pressure Rain* Wind** Luminosity Snow
1788044193 35° C 26% 1012.6 hPa 0 mm - 134 W/m² -
1788043888 35° C 24% 1013 hPa 0 mm - 116 W/m² -
1788043589 35.56° C 24% 1012.8 hPa 0 mm - 138 W/m² -
1788043284 35° C 25% 1013 hPa 0 mm - 352 W/m² -
1788042979 35° C 25% 1012.7 hPa 0 mm - 403 W/m² -
1788042674 34.44° C 27% 1012.6 hPa 0 mm - 177 W/m² -
1788042373 35° C 23% 1012.8 hPa 0 mm - 273 W/m² -
1788042068 35° C 24% 1012.7 hPa 0 mm - 198 W/m² -
1788041763 36.11° C 23% 1012.7 hPa 0 mm - 176 W/m² -
1788041459 35.56° C 23% 1012.6 hPa 0 mm - 178 W/m² -
1788041158 36.11° C 22% 1012.8 hPa 0 mm - 337 W/m² -
1788040858 36.11° C 22% 1013 hPa 0 mm - 429 W/m² -
1788040556 35.56° C 23% 1012.9 hPa 0 mm - 458 W/m² -
1788040253 35° C 23% 1013.3 hPa 0 mm - 492 W/m² -
1788039951 35° C 25% 1013.5 hPa 0 mm - 540 W/m² -
1788039647 34.44° C 24% 1013.6 hPa 0 mm - 567 W/m² -
1788039342 34.44° C 25% 1013.7 hPa 0 mm - 391 W/m² -
1788039037 34.44° C 27% 1013.7 hPa 0 mm - 170 W/m² -
1788038732 34.44° C 26% 1013.7 hPa 0 mm - 185 W/m² -
1788038427 34.44° C 26% 1013.9 hPa 0 mm - 315 W/m² -
1788038127 35° C 26% 1013.8 hPa 0 mm - 268 W/m² -
1788037826 35° C 25% 1013.7 hPa 0 mm - 570 W/m² -
1788037521 35° C 24% 1013.9 hPa 0 mm - 605 W/m² -
1788037221 35° C 25% 1013.8 hPa 0 mm - 282 W/m² -
1788036916 34.44° C 25% 1014 hPa 0 mm - 426 W/m² -

* Rain latest hour (hover to see other rain measurements)
** Current wind speed in m/s (hover to see current wind gust speed)